Temp
68 71 74 75 74 75 74 73 71 73 72 72 74 74 71 70 72 73 71 73 72 73 73 72 74 72 71 70 69 71 72 71
74 74 74 75 74 74 74 73 73 73 72 73 73 69 67 68 70 71 70 66 71 73 74 71 72 71 70 68 69 67 69 70
73 74 73 73 73 73 74 74 73 74 76 76 75 73 68 69 74 68 70 69 70 71 71 71 71 70 68 67 67 68 69 68
71 73 73 73 73 73 75 76 77 76 77 77 75 74 71 70 70 65 66 66 69 72 71 71 69 70 68 67 66 65 66 66
75 74 75 74 75 77 78 78 77 76 76 75 71 72 70 71 68 67 66 66 70 71 71 70 69 70 68 67 67 66 63 63
78 77 77 78 77 77 77 77 76 75 74 73 72 72 71 67 59 59 65 67 70 71 70 69 68 69 67 64 63 62 65 62
79 80 79 78 76 74 73 74 73 74 72 71 71 70 66 63 58 58 65 69 69 68 70 68 68 65 64 62 57 55 59 62
79 79 78 77 75 73 72 73 73 74 71 70 67 68 66 65 62 62 68 67 66 67 68 66 65 64 53 49 51 61 61 60
79 80 79 78 74 72 73 73 73 73 71 68 68 69 68 67 64 67 68 68 68 68 66 66 64 49 48 50 57 61 61 59
79 80 80 77 75 73 73 74 75 72 68 68 67 67 66 66 65 69 69 70 69 65 64 60 51 48 49 54 59 60 59 58
78 79 79 79 78 77 74 77 76 74 71 68 66 68 68 64 66 68 68 68 65 62 57 51 47 48 55 59 60 60 58 58
76 77 79 78 78 77 75 76 77 75 72 68 65 66 64 63 64 64 64 62 59 55 50 49 56 58 60 59 59 59 57 57
77 77 77 77 76 76 76 75 75 75 72 67 64 61 59 56 56 57 57 53 52 50 51 56 58 61 60 59 58 59 57 56
76 75 74 75 75 74 75 73 72 71 67 62 57 55 55 54 52 52 50 50 52 51 55 58 59 59 59 59 58 57 56 56
77 76 75 74 73 73 72 70 69 65 62 59 56 54 53 51 49 47 46 47 48 50 53 57 57 59 59 58 57 56 56 56
75 76 75 73 71 69 68 64 61 59 58 55 54 53 50 46 45 45 49 52 49 50 57 58 58 57 58 57 56 55 54 54
73 73 72 68 66 66 61 58 58 59 58 55 54 49 46 44 43 48 47 47 52 58 57 57 56 57 44 41 43 52 53 53
67 68 67 66 64 63 59 58 59 57 55 52 50 47 46 49 50 50 49 53 57 56 55 55 54 55 42 40 39 50 51 52
63 64 64 64 65 64 62 61 59 56 54 52 52 50 47 49 54 52 52 56 54 55 54 54 53 54 42 39 38 48 50 51
MSLP
1015.53 1015.91 1016.35 1016.78 1017.48 1017.84 1018.26 1018.57 1018.88 1019.11 1019.51 1019.91 1020.11 1020.33 1020.92 1021.34 1021.52 1021.73 1022.31 1022.51 1022.78 1022.99 1023.16 1023.76 1023.88 1024.23 1024.80 1024.99 1025.36 1025.53 1025.42 1025.64
1014.85 1015.40 1015.86 1016.32 1016.97 1017.20 1017.62 1017.93 1018.29 1018.75 1019.17 1019.35 1019.64 1020.22 1020.87 1021.29 1021.62 1021.92 1022.27 1022.96 1022.86 1022.72 1022.99 1023.74 1023.93 1024.30 1024.78 1025.08 1025.45 1025.63 1025.66 1025.98
1013.76 1014.59 1015.31 1015.84 1016.25 1016.72 1017.15 1017.50 1018.06 1018.40 1018.50 1018.75 1019.15 1019.73 1020.72 1021.03 1021.02 1021.98 1022.37 1022.61 1022.76 1022.80 1023.01 1023.50 1023.91 1024.22 1024.84 1025.12 1025.42 1025.47 1025.65 1026.10
1012.92 1013.66 1014.23 1015.00 1015.45 1016.04 1016.47 1016.87 1017.28 1017.88 1017.94 1018.37 1018.91 1019.44 1020.40 1020.78 1021.19 1022.07 1022.43 1022.76 1022.71 1022.67 1023.11 1023.35 1023.77 1023.93 1024.48 1025.01 1025.35 1025.63 1025.35 1025.88
1011.64 1012.52 1013.06 1013.73 1014.43 1015.13 1015.67 1016.09 1016.58 1017.14 1017.70 1018.04 1018.65 1018.92 1019.48 1020.11 1021.07 1021.87 1022.25 1022.48 1022.35 1022.73 1023.12 1023.37 1023.63 1023.76 1024.28 1024.74 1025.21 1025.54 1025.88 1025.44
1009.89 1010.85 1011.73 1012.71 1013.67 1014.35 1015.00 1015.52 1016.17 1016.78 1017.43 1017.86 1018.28 1018.58 1019.36 1020.67 1021.33 1021.78 1022.22 1022.19 1022.30 1022.60 1023.00 1023.22 1023.50 1023.81 1024.39 1025.18 1025.64 1025.79 1025.62 1025.66
1008.79 1009.63 1010.69 1011.55 1012.77 1013.81 1014.67 1015.21 1015.90 1016.43 1017.23 1017.72 1018.04 1018.37 1019.39 1020.31 1020.97 1021.27 1021.49 1021.64 1021.78 1022.26 1022.53 1022.94 1023.40 1024.08 1024.52 1025.43 1026.14 1026.03 1025.68 1025.65
1007.61 1008.47 1009.61 1010.62 1011.67 1012.97 1013.91 1014.47 1014.89 1015.69 1016.64 1017.18 1017.74 1018.00 1018.69 1019.41 1019.94 1020.39 1020.54 1020.87 1021.19 1021.57 1022.13 1022.80 1023.45 1023.97 1025.26 1026.06 1026.70 1026.08 1025.85 1025.75
1006.84 1007.40 1008.51 1009.73 1010.90 1012.16 1012.83 1013.30 1013.88 1014.72 1015.81 1016.66 1017.35 1017.60 1018.03 1018.52 1019.14 1019.51 1019.92 1020.35 1020.69 1021.26 1022.24 1022.84 1023.38 1025.22 1025.79 1026.14 1025.76 1025.50 1025.45 1025.72
1005.96 1006.82 1007.73 1008.96 1010.09 1011.04 1011.75 1012.32 1013.00 1013.88 1014.77 1015.77 1016.39 1016.97 1017.63 1018.04 1018.57 1018.93 1019.43 1019.90 1020.35 1021.59 1022.29 1023.19 1024.21 1024.95 1025.45 1025.58 1025.20 1025.12 1025.37 1025.42
1005.64 1006.22 1007.06 1008.08 1009.06 1010.15 1011.14 1011.57 1012.02 1013.09 1014.24 1015.29 1016.06 1016.60 1017.18 1017.82 1018.14 1018.50 1019.12 1019.81 1020.82 1021.86 1023.02 1023.91 1024.34 1024.68 1024.81 1024.54 1024.50 1024.57 1024.87 1024.90
1005.53 1006.04 1006.78 1007.69 1008.52 1009.49 1010.37 1010.98 1011.51 1012.41 1013.69 1014.85 1015.69 1016.25 1017.12 1017.67 1018.07 1018.82 1019.66 1020.46 1021.22 1022.65 1023.12 1023.52 1023.96 1023.81 1023.92 1024.24 1024.25 1024.27 1024.42 1024.49
1005.35 1005.84 1006.54 1007.33 1008.15 1009.00 1009.72 1010.49 1011.29 1012.20 1013.36 1014.52 1015.61 1016.51 1017.42 1018.38 1019.10 1019.78 1020.50 1021.43 1022.04 1022.46 1022.87 1023.03 1023.38 1023.36 1023.48 1023.78 1023.87 1023.86 1023.97 1024.01
1005.42 1005.95 1006.55 1007.24 1007.96 1008.75 1009.46 1010.59 1011.68 1012.55 1013.78 1015.05 1016.16 1016.96 1017.88 1018.99 1019.79 1020.62 1021.25 1021.87 1022.43 1023.04 1022.74 1022.71 1022.69 1023.07 1023.16 1023.45 1023.63 1023.61 1023.63 1023.59
1005.17 1005.82 1006.49 1007.32 1008.12 1008.98 1010.06 1011.11 1012.10 1013.08 1014.46 1015.54 1016.46 1017.41 1017.64 1019.02 1019.95 1021.37 1021.35 1022.16 1022.44 1022.67 1022.94 1022.76 1022.66 1022.75 1023.07 1023.40 1023.45 1023.38 1023.26 1023.16
1005.16 1005.63 1006.35 1007.45 1008.53 1009.49 1010.47 1011.84 1012.87 1014.06 1014.96 1015.99 1016.76 1017.90 1018.65 1019.42 1020.68 1021.04 1021.57 1022.09 1022.63 1022.66 1022.36 1022.22 1022.35 1022.60 1023.00 1023.48 1023.41 1023.28 1023.04 1022.77
1005.44 1005.98 1006.71 1007.93 1009.04 1010.06 1011.31 1012.36 1013.34 1014.19 1014.93 1016.02 1017.25 1018.50 1019.24 1020.09 1020.84 1020.97 1021.73 1022.21 1022.42 1022.09 1022.19 1022.21 1022.36 1022.64 1023.39 1023.99 1023.99 1023.33 1022.78 1022.40
1006.35 1006.75 1007.43 1008.43 1009.50 1010.62 1011.86 1012.74 1013.57 1014.52 1015.51 1016.81 1017.94 1018.79 1019.48 1020.19 1020.65 1020.92 1021.41 1021.71 1021.77 1021.85 1021.98 1022.17 1022.34 1022.57 1023.29 1023.70 1023.81 1023.39 1022.64 1022.00
1007.72 1008.07 1008.76 1009.43 1010.16 1011.04 1012.06 1012.96 1013.99 1015.01 1015.98 1017.02 1018.01 1018.82 1019.59 1020.27 1020.45 1020.89 1021.20 1021.19 1021.43 1021.55 1021.68 1021.89 1022.09 1022.18 1022.80 1023.25 1023.33 1023.01 1022.19 1021.46
Wind_Speed
14 17 18 17 20 19 16 10 9 10 8 8 7 6 5 5 6 7 9 9 11 10 9 10 8 7 6 5 5 3 2 3
18 17 17 18 19 18 15 11 8 8 8 9 8 7 6 5 6 9 11 9 12 11 9 9 7 7 7 7 5 4 2 0
19 19 19 20 19 17 15 14 12 11 9 9 7 8 6 6 7 8 9 11 11 9 10 10 9 8 7 6 4 2 1 1
19 21 21 20 20 19 18 15 15 14 12 9 6 7 6 7 7 7 7 10 11 10 11 9 9 7 7 6 4 4 3 3
20 21 22 22 21 18 18 16 14 13 13 10 13 9 8 7 7 6 8 10 11 11 11 10 9 6 7 6 5 4 4 4
22 24 23 19 19 17 15 15 14 15 15 13 11 10 7 6 5 6 9 10 11 11 11 10 9 6 5 5 6 6 4 4
21 21 20 20 17 17 15 17 16 15 15 16 15 14 12 10 9 8 10 10 10 12 12 10 8 8 8 6 3 5 5 4
20 21 20 19 20 19 17 19 18 17 17 15 13 14 15 15 13 10 13 10 10 12 12 11 9 9 6 5 4 8 5 5
20 21 19 18 19 19 19 19 18 18 17 17 16 16 11 11 12 11 11 10 10 11 11 10 10 6 5 5 7 7 6 5
17 19 18 19 19 20 20 19 18 16 15 13 15 14 14 13 13 13 10 10 8 11 12 12 9 6 7 9 8 7 6 6
10 14 17 16 18 18 18 18 18 17 16 14 12 15 14 11 9 11 11 9 11 13 11 7 6 7 11 11 8 8 7 6
8 10 12 14 14 15 16 16 16 14 13 12 12 11 10 8 7 8 10 11 12 10 7 6 9 10 9 9 9 8 9 9
7 8 10 12 14 14 15 13 12 10 9 8 6 5 8 8 7 8 9 7 6 7 6 8 8 8 8 9 10 9 10 11
7 8 9 10 12 12 13 11 10 9 8 10 11 12 11 9 9 8 7 7 5 3 7 8 7 7 8 9 10 10 11 12
8 9 9 10 10 11 11 10 8 11 11 11 11 10 14 14 12 7 8 6 6 4 5 7 6 7 8 8 9 10 11 11
7 8 9 9 10 10 10 10 11 12 13 13 14 14 13 11 10 9 11 9 5 7 9 6 6 7 6 8 8 9 11 12
5 7 8 10 11 12 12 12 13 14 14 15 15 14 13 11 9 12 8 6 9 6 6 8 7 6 6 4 7 10 12 13
2 6 8 9 11 13 14 14 14 13 15 15 14 13 12 12 10 10 8 8 6 8 7 6 8 8 8 7 8 10 12 14
6 7 8 9 11 12 13 13 14 15 16 15 14 13 10 9 10 7 5 6 6 6 6 6 7 7 5 8 10 12 13 15
Wind_Direction
165 180 175 174 172 182 190 204 202 170 162 166 173 165 161 161 176 179 169 174 170 164 154 153 156 144 144 136 136 106 48 12
169 173 173 177 183 191 201 204 195 173 179 183 170 173 173 169 180 178 174 172 179 171 155 157 157 158 144 146 143 152 148 340
179 183 184 191 193 203 204 208 196 196 191 188 186 171 182 190 176 173 183 175 175 173 162 166 169 147 151 155 176 167 264 281
197 198 199 198 204 204 210 211 203 205 198 187 182 160 164 180 183 166 184 176 180 176 176 170 164 163 163 164 174 229 276 194
196 200 204 206 209 211 214 220 214 203 201 186 193 193 189 187 174 170 178 182 183 182 178 170 169 168 165 169 185 225 251 276
204 203 207 206 206 213 213 212 208 196 195 204 198 206 190 172 129 163 196 189 189 187 182 176 174 180 152 140 188 210 216 281
208 208 205 207 203 205 203 204 203 196 199 201 200 196 180 177 167 181 200 196 188 191 186 183 167 153 150 167 200 229 234 247
212 206 203 202 195 197 198 200 204 200 200 199 203 199 185 189 181 190 202 196 193 188 185 178 166 147 136 121 199 236 234 249
216 214 203 202 196 195 195 197 202 198 199 200 202 203 200 197 189 198 207 204 199 178 183 176 146 104 129 195 214 227 225 238
216 213 208 203 195 197 197 197 201 198 198 202 206 204 202 200 199 205 205 205 181 167 171 152 143 150 174 204 220 224 229 233
208 212 206 205 199 199 199 202 195 197 196 202 206 205 207 200 203 195 194 171 166 162 157 142 143 171 199 206 223 225 238 243
205 206 204 205 202 201 201 203 199 194 192 202 203 209 198 201 183 180 171 162 150 163 147 161 204 194 201 216 237 250 242 255
198 197 193 194 196 198 200 198 198 192 188 182 175 98 98 107 131 141 125 123 143 143 163 196 202 201 211 230 246 253 254 261
191 190 191 193 192 197 194 189 179 172 165 140 133 130 129 127 108 104 93 124 132 169 192 193 195 222 238 248 257 264 264 264
213 196 190 185 186 182 188 165 148 141 152 148 143 141 123 118 117 90 100 117 140 154 217 210 224 245 258 262 264 264 267 267
225 210 186 173 168 163 153 142 136 139 142 136 127 125 119 117 110 117 135 156 146 198 214 220 246 254 254 262 272 272 273 274
249 198 173 159 156 151 142 138 142 148 142 135 130 124 116 115 127 138 139 151 207 205 236 256 249 247 123 236 266 278 282 279
205 173 160 149 147 142 142 142 139 134 129 128 127 122 124 139 145 131 152 196 227 254 257 237 246 258 168 238 252 274 279 278
104 113 122 125 130 126 133 135 132 131 128 125 125 124 126 123 130 156 198 239 236 241 246 254 262 267 195 249 259 274 277 278